EW4610 Weather Reports


time (UTC)temp
F
wind
direction
speed
knots
gust
knots
rain 1hr
in
rain 24hr
in
rain mn
in
humidity
%
barometer
mb
20260506094636 59 2.6 7.0 0.00 0.00 0.00 51 1014.2
20260506094105 59 0.9 1.7 0.00 0.00 0.00 51 1014.0
20260506093405 59 3.5 6.1 0.00 0.00 0.00 50 1014.2
20260506092825 59 2.6 3.5 0.00 0.00 0.00 51 1014.0
20260506092253 59 4.3 7.8 0.00 0.00 0.00 53 1014.0
20260506091702 59 7.0 11.3 0.00 0.00 0.00 52 1013.8
20260506091131 59 1.7 7.8 0.00 0.00 0.00 54 1013.8
20260506090559 58 1.7 3.5 0.00 0.00 0.00 55 1013.7
20260506090038 58 2.6 3.5 0.00 0.00 0.00 55 1013.7
20260506085436 57 5.2 8.7 0.00 0.00 0.00 56 1013.8
20260506084906 57 2.6 6.1 0.00 0.00 0.00 56 1013.8
20260506084335 58 7.0 13.0 0.00 0.00 0.00 58 1013.7
20260506083702 57 2.6 5.2 0.00 0.00 0.00 59 1013.7
20260506083132 56 2.6 8.7 0.00 0.00 0.00 62 1013.7
20260506082616 55 3.5 5.2 0.00 0.00 0.00 60 1013.6
20260506081931 56 3.5 7.8 0.00 0.00 0.00 61 1013.7
20260506081145 56 3.5 7.0 0.00 0.00 0.00 66 1013.7
20260506080514 54 1.7 4.3 0.00 0.00 0.00 70 1013.6
20260506073448 50 0.0 0.9 0.00 0.00 0.00 74 1013.6
20260506072912 50 0.0 3.5 0.00 0.00 0.00 74 1013.6
20260506072323 50 1.7 3.5 0.00 0.00 0.00 75 1013.4
20260506071823 49 1.7 5.2 0.00 0.00 0.00 76 1013.6
20260506071322 49 0.0 1.7 0.00 0.00 0.00 76 1013.7
20260506070822 49 2.6 3.5 0.00 0.00 0.00 76 1013.5
20260506070318 48 0.9 1.7 0.00 0.00 0.00 76 1013.6
20260506062318 47 0.0 1.7 0.00 0.00 0.00 79 1013.2
20260506061818 47 0.9 3.5 0.00 0.00 0.00 79 1013.2
20260506061317 47 1.7 3.5 0.00 0.00 0.00 79 1013.4
20260506060826 47 1.7 3.5 0.00 0.00 0.00 79 1013.2
20260506060322 47 4.3 6.1 0.00 0.00 0.00 79 1013.3
20260506051134 46 1.7 2.6 0.00 0.00 0.00 81 1012.9
20260506050549 46 0.9 3.5 0.00 0.00 0.00 81 1013.1
20260506044857 46 0.9 1.7 0.00 0.00 0.00 81 1012.9
20260506044327 46 0.9 2.6 0.00 0.00 0.00 81 1013.0
20260506043822 47 3.5 6.1 0.00 0.00 0.00 81 1012.9
20260506043321 47 2.6 7.0 0.00 0.00 0.00 80 1012.9
20260506042821 47 1.7 3.5 0.00 0.00 0.00 80 1012.9
20260506042320 47 1.7 4.3 0.00 0.00 0.00 80 1012.9
20260506041820 47 2.6 6.1 0.00 0.00 0.00 80 1012.9
20260506041320 47 4.3 7.8 0.00 0.00 0.00 80 1012.8
20260506040819 47 3.5 7.0 0.00 0.00 0.00 79 1012.9
20260506040318 47 1.7 5.2 0.00 0.00 0.00 79 1012.8
20260506035817 47 1.7 3.5 0.00 0.00 0.00 79 1012.7
20260506035317 47 1.7 4.3 0.00 0.00 0.00 79 1012.8
20260506034817 47 2.6 4.3 0.00 0.00 0.00 78 1012.6
20260506034316 47 1.7 3.5 0.00 0.00 0.00 78 1012.8
20260506033816 47 1.7 1.7 0.00 0.00 0.00 78 1012.7
20260506033315 47 0.9 2.6 0.00 0.00 0.00 78 1012.6
20260506032814 48 1.7 3.5 0.00 0.00 0.00 78 1013.0
20260506032244 48 0.9 1.7 0.00 0.00 0.00 78 1013.0
20260506031714 48 1.7 6.1 0.00 0.00 0.00 78 1013.0
20260506031123 48 1.7 6.1 0.00 0.00 0.00 78 1012.7
20260506030553 48 0.0 0.9 0.00 0.00 0.00 79 1012.9
20260506030038 49 1.7 4.3 0.00 0.00 0.00 79 1012.7
20260506025437 49 1.7 3.5 0.00 0.00 0.00 79 1012.9
20260506024906 49 0.9 3.5 0.00 0.00 0.00 79 1012.8
20260506024321 49 1.7 2.6 0.00 0.00 0.00 79 1012.8
20260506023821 50 0.9 3.5 0.00 0.00 0.00 78 1012.9
20260506023320 50 1.7 4.3 0.00 0.00 0.00 78 1013.0
20260506022819 50 1.7 3.5 0.00 0.00 0.00 78 1012.9
20260506022234 50 0.0 1.7 0.00 0.00 0.00 78 1013.0
20260506021704 50 1.7 3.5 0.00 0.00 0.00 78 1012.9
20260506021133 50 3.5 7.0 0.00 0.00 0.00 77 1012.9
20260506020548 50 1.7 3.5 0.00 0.00 0.00 77 1013.1
20260506020032 50 1.7 5.2 0.00 0.00 0.00 77 1013.1
20260506015447 50 0.0 1.7 0.00 0.00 0.00 77 1013.1
20260506014916 50 0.0 0.9 0.00 0.00 0.00 77 1013.1
20260506014326 50 0.9 3.5 0.00 0.00 0.00 76 1013.0
20260506013825 50 0.9 2.6 0.00 0.00 0.00 76 1013.2
20260506013325 50 0.9 2.6 0.00 0.00 0.00 76 1013.1
20260506012824 50 1.7 4.3 0.00 0.00 0.00 75 1013.2
20260506012319 50 2.6 4.3 0.00 0.00 0.00 75 1013.2
20260506011818 50 0.9 2.6 0.00 0.00 0.00 75 1013.3
20260506011317 50 1.7 3.5 0.00 0.00 0.00 75 1013.3
20260506010816 50 1.7 3.5 0.00 0.00 0.00 75 1013.3
20260506010315 50 1.7 3.5 0.00 0.00 0.00 75 1013.2
20260506005815 50 0.0 1.7 0.00 0.00 0.00 75 1013.3
20260506005314 50 0.0 1.7 0.00 0.00 0.00 74 1013.3
20260506004814 50 2.6 3.5 0.00 0.00 0.00 74 1013.2
20260506004313 50 1.7 4.3 0.00 0.00 0.00 74 1013.4
20260506003758 50 1.7 5.2 0.00 0.00 0.00 74 1013.2
20260506003122 51 0.9 5.2 0.00 0.00 0.00 74 1013.3
20260506002552 51 0.0 3.5 0.00 0.00 0.00 74 1013.4
20260506002021 51 1.7 7.8 0.00 0.00 0.00 74 1013.4
20260506001451 51 0.9 2.6 0.00 0.00 0.00 74 1013.6
20260506000910 51 2.6 4.3 0.00 0.00 0.00 74 1013.4
20260506000324 51 0.9 2.6 0.00 0.00 0.00 73 1013.4
20260505235824 51 2.6 4.3 0.00 0.00 0.00 73 1013.5
20260505235317 51 1.7 4.3 0.00 0.00 0.00 73 1013.3
20260505234812 51 0.9 2.6 0.00 0.00 0.00 73 1013.4
20260505234312 51 1.7 4.3 0.00 0.00 0.00 73 1013.3
20260505233811 51 3.5 7.0 0.00 0.00 0.00 74 1013.3
20260505233326 51 1.7 4.3 0.00 0.00 0.00 74 1013.3
20260505232820 52 1.7 5.2 0.00 0.00 0.00 75 1013.4
20260505232319 52 1.7 3.5 0.00 0.00 0.00 77 1013.4
20260505231819 52 0.9 3.5 0.00 0.00 0.00 78 1013.4
20260505231319 52 2.6 6.1 0.00 0.00 0.00 78 1013.4
20260505230818 52 1.7 3.5 0.00 0.00 0.00 78 1013.3
20260505230317 52 3.5 5.2 0.00 0.00 0.00 77 1013.3
20260505225817 52 1.7 2.6 0.00 0.00 0.00 77 1013.3
20260505225317 52 0.0 0.9 0.00 0.00 0.00 76 1013.2
20260505224811 52 0.9 3.5 0.00 0.00 0.00 76 1013.4
20260505224241 52 0.9 2.6 0.00 0.00 0.00 76 1013.3
20260505223710 52 0.9 3.5 0.00 0.00 0.00 76 1013.3
20260505223124 52 1.7 2.6 0.00 0.00 0.00 76 1013.5
20260505222554 52 1.7 3.5 0.00 0.00 0.00 76 1013.4
20260505222023 53 1.7 7.0 0.00 0.00 0.00 76 1013.2
20260505221438 53 1.7 4.3 0.00 0.00 0.00 76 1013.5
20260505220907 53 1.7 4.3 0.00 0.00 0.00 75 1013.4
20260505220322 53 1.7 3.5 0.00 0.00 0.00 73 1013.4
20260505215821 53 6.1 7.8 0.00 0.00 0.00 71 1013.3
20260505215315 53 0.9 1.7 0.00 0.00 0.00 70 1013.4
20260505214814 53 0.9 2.6 0.00 0.00 0.00 70 1013.4
20260505214314 53 0.0 0.0 0.00 0.00 0.00 71 1013.4
20260505213813 53 1.7 6.1 0.00 0.00 0.00 71 1013.2
20260505213313 53 0.0 0.0 0.00 0.00 0.00 71 1013.1
20260505212812 53 0.0 1.7 0.00 0.00 0.00 71 1013.1
20260505212312 53 0.9 3.5 0.00 0.00 0.00 71 1013.1
20260505211811 53 0.0 2.6 0.00 0.00 0.00 72 1013.2
20260505211325 53 0.0 0.0 0.00 0.00 0.00 71 1013.0
20260505210824 53 0.0 0.0 0.00 0.00 0.00 70 1013.1
20260505210239 53 0.0 0.0 0.00 0.00 0.00 70 1013.1
20260505205703 54 0.0 1.7 0.00 0.00 0.00 68 1013.2
20260505205133 54 1.7 4.3 0.00 0.00 0.00 67 1013.0
20260505204545 54 1.7 3.5 0.00 0.00 0.00 66 1013.2
20260505204029 54 0.9 4.3 0.00 0.00 0.00 65 1012.9
20260505203439 55 0.0 0.0 0.00 0.00 0.00 65 1013.0
20260505202908 55 0.0 0.9 0.00 0.00 0.00 64 1013.0
20260505202322 55 0.0 0.9 0.00 0.00 0.00 64 1012.7
20260505201821 55 0.9 3.5 0.00 0.00 0.00 64 1012.7
20260505201320 55 0.0 0.0 0.00 0.00 0.00 63 1012.8
20260505200819 55 0.0 0.0 0.00 0.00 0.00 62 1012.8
20260505200313 55 1.7 5.2 0.00 0.00 0.00 61 1012.6
20260505195813 55 1.7 3.5 0.00 0.00 0.00 61 1012.7
20260505195311 55 2.6 3.5 0.00 0.00 0.00 61 1012.5
20260505194811 55 2.6 6.1 0.00 0.00 0.00 61 1012.2
20260505194240 55 0.0 1.7 0.00 0.00 0.00 61 1012.3
20260505193709 55 0.0 0.0 0.00 0.00 0.00 61 1012.2
20260505193123 55 0.0 1.7 0.00 0.00 0.00 61 1012.1
20260505192553 56 0.0 0.0 0.00 0.00 0.00 60 1012.1
20260505192022 56 0.0 0.0 0.00 0.00 0.00 60 1012.1
20260505191451 56 0.0 0.0 0.00 0.00 0.00 60 1011.9
20260505190920 56 0.0 0.0 0.00 0.00 0.00 60 1012.0
20260505190325 56 0.0 0.0 0.00 0.00 0.00 59 1012.0
20260505185824 56 0.0 0.0 0.00 0.00 0.00 59 1011.9
20260505185317 57 0.0 0.0 0.00 0.00 0.00 59 1012.0
20260505184816 57 0.0 0.0 0.00 0.00 0.00 58 1012.0
20260505184311 57 0.0 1.7 0.00 0.00 0.00 58 1011.8
20260505183810 57 0.0 0.0 0.00 0.00 0.00 58 1011.9
20260505183325 57 0.0 0.0 0.00 0.00 0.00 57 1011.9
20260505182819 57 0.0 0.0 0.00 0.00 0.00 57 1011.7
20260505182318 57 0.0 0.9 0.00 0.00 0.00 57 1011.6
20260505181818 57 0.0 1.7 0.00 0.00 0.00 57 1011.7
20260505181318 58 0.0 1.7 0.00 0.00 0.00 56 1011.8
20260505180818 58 0.0 0.0 0.00 0.00 0.00 56 1011.9
20260505180316 58 0.0 0.0 0.00 0.00 0.00 56 1011.9
20260505175745 58 0.0 0.9 0.00 0.00 0.00 55 1011.8
20260505175215 58 0.0 1.7 0.00 0.00 0.00 55 1011.8
20260505174644 58 0.0 0.9 0.00 0.00 0.00 55 1011.9
20260505174023 58 0.0 0.9 0.00 0.00 0.00 55 1011.7
20260505173438 58 0.0 0.9 0.00 0.00 0.00 55 1011.8
20260505172907 59 0.0 1.7 0.00 0.00 0.00 54 1011.8
20260505172321 59 0.0 0.0 0.00 0.00 0.00 54 1011.8
20260505171821 59 0.0 0.0 0.00 0.00 0.00 54 1011.8
20260505171305 59 0.0 0.0 0.00 0.00 0.00 54 1011.7
20260505170729 59 0.0 0.0 0.00 0.00 0.00 53 1011.6
20260505170158 60 0.0 1.7 0.00 0.00 0.00 53 1011.8
20260505165448 60 0.0 2.6 0.00 0.00 0.00 53 1011.8
20260505164915 60 0.9 1.7 0.00 0.00 0.00 53 1011.8
20260505164323 60 0.0 0.0 0.00 0.00 0.00 53 1011.8
20260505163821 60 0.0 1.7 0.00 0.00 0.00 53 1011.8
20260505163319 60 0.0 0.9 0.00 0.00 0.00 53 1011.7
20260505162818 60 0.0 0.0 0.00 0.00 0.00 52 1011.6
20260505162317 61 0.0 0.0 0.00 0.00 0.00 52 1011.6
20260505161816 61 0.0 1.7 0.00 0.00 0.00 52 1011.8
20260505161331 61 0.0 0.0 0.00 0.00 0.00 51 1011.8
20260505160833 61 0.9 1.7 0.00 0.00 0.00 52 1011.9
20260505160322 61 0.0 0.9 0.00 0.00 0.00 51 1011.8
20260505153326 61 0.0 1.7 0.00 0.00 0.00 52 1011.9
20260505152819 61 0.0 2.6 0.00 0.00 0.00 52 1011.9
20260505152248 61 1.7 2.6 0.00 0.00 0.00 52 1011.9
20260505151711 61 0.0 1.7 0.00 0.00 0.00 52 1011.9
20260505151130 61 0.0 0.0 0.00 0.00 0.00 52 1012.2
20260505150558 61 0.0 1.7 0.00 0.00 0.00 52 1011.9
20260505124817 64 1.7 4.3 0.00 0.00 0.00 51 1012.7
20260505124316 63 1.7 3.5 0.00 0.00 0.00 51 1012.8
20260505123816 63 1.7 1.7 0.00 0.00 0.00 51 1012.6
20260505123314 64 0.9 1.7 0.00 0.00 0.00 51 1012.8
20260505122811 64 0.0 0.9 0.00 0.00 0.00 51 1012.6
20260505122240 64 1.7 4.3 0.00 0.00 0.00 51 1012.6
20260505121710 64 1.7 6.1 0.00 0.00 0.00 50 1012.6
20260505121122 65 2.6 5.2 0.00 0.00 0.00 50 1012.7
20260505120622 65 0.9 2.6 0.00 0.00 0.00 52 1012.7
20260505115703 63 5.2 9.6 0.00 0.00 0.00 52 1012.6
20260505115130 63 0.9 5.2 0.00 0.00 0.00 52 1012.7
20260505114555 64 1.7 3.5 0.00 0.00 0.00 51 1012.6
20260505114024 64 1.7 2.6 0.00 0.00 0.00 51 1012.6
20260505113437 64 1.7 5.2 0.00 0.00 0.00 50 1012.9
20260505112921 65 2.6 7.0 0.00 0.00 0.00 50 1012.9
20260505112340 65 0.9 2.6 0.00 0.00 0.00 50 1012.9
20260505111711 66 1.7 3.5 0.00 0.00 0.00 51 1013.0
20260505111124 66 2.6 4.3 0.00 0.00 0.00 50 1012.9
20260505110553 67 0.9 2.6 0.00 0.00 0.00 50 1013.0
20260505101656 63 3.5 7.0 0.00 0.00 0.00 60 1013.1
20260505101126 63 1.7 3.5 0.00 0.00 0.00 61 1013.3
20260505100555 62 1.7 2.6 0.00 0.00 0.00 63 1013.3
20260505100052 60 1.7 3.5 0.00 0.00 0.00 64 1013.4
20260505095404 60 1.7 3.5 0.00 0.00 0.00 63 1013.3
20260505094822 61 1.7 2.6 0.00 0.00 0.00 63 1013.5